Location: Kampong Paya Jaras Dalam
(3.1833°N, 101.5500°E)
Time: 05:22:25
(UTC+00:00)

Centaur D AC-25 - Pass Details

Date: 15 May 2026
Orbit: 613 x 36460 km, 27.6° (Epoch: 7 June)

Event Time Altitude Azimuth Distance (km) Brightness Sun altitude
Exits shadow 21:46:58 15° 307° (NW) 1,832 4.2 -18.5°
Maximum altitude 21:48:10 17° 329° (NNW) 1,624 4.1 -18.2°
Drops below altitude 10° 21:50:37 10° 14° (NNE) 1,961 5.1 -17.6°
Sets 21:53:38 0° 40° (NE) 3,199 6.8 -16.9°
